Time,TemperatureF,DewpointF,PressureIn,WindDirection,WindDirectionDegrees,WindSpeedMPH,WindSpeedGustMPH,Humidity,HourlyPrecipIn,Conditions,Clouds,dailyrainin,SoftwareType,DateUTC
2013-02-23 00:04:00,38.4,35.2,29.92,SW,218,5.0,10.0,88,0.00,,,0.00,Wunderground v.1.15,2013-02-23 08:04:00,
2013-02-23 00:09:00,38.4,34.9,29.92,WSW,242,5.0,10.0,87,0.00,,,0.00,Wunderground v.1.15,2013-02-23 08:09:00,
2013-02-23 00:15:00,38.4,35.2,29.92,West,260,5.0,7.0,88,0.00,,,0.00,Wunderground v.1.15,2013-02-23 08:15:00,
2013-02-23 00:20:00,38.4,35.2,29.92,WNW,283,5.0,10.0,88,0.00,,,0.00,Wunderground v.1.15,2013-02-23 08:20:00,
2013-02-23 00:25:00,38.4,35.2,29.92,SW,234,5.0,10.0,88,0.00,,,0.00,Wunderground v.1.15,2013-02-23 08:25:00,
2013-02-23 00:31:00,38.3,35.1,29.93,West,271,5.0,6.0,88,0.00,,,0.00,Wunderground v.1.15,2013-02-23 08:31:00,
2013-02-23 00:36:00,38.3,35.1,29.93,South,191,5.0,7.0,88,0.00,,,0.00,Wunderground v.1.15,2013-02-23 08:36:00,
2013-02-23 00:42:00,38.3,34.8,29.94,WSW,238,5.0,9.0,87,0.00,,,0.00,Wunderground v.1.15,2013-02-23 08:42:00,
2013-02-23 00:47:00,38.3,34.8,29.94,SW,217,4.0,9.0,87,0.00,,,0.00,Wunderground v.1.15,2013-02-23 08:47:00,
2013-02-23 00:52:00,38.3,34.8,29.94,SW,226,4.0,5.0,87,0.00,,,0.00,Wunderground v.1.15,2013-02-23 08:52:00,
2013-02-23 00:57:00,38.3,34.8,29.94,WSW,240,5.0,7.0,87,0.00,,,0.00,Wunderground v.1.15,2013-02-23 08:57:00,
2013-02-23 01:02:00,38.3,34.8,29.94,SSW,209,3.0,7.0,87,0.00,,,0.00,Wunderground v.1.15,2013-02-23 09:02:00,
2013-02-23 01:08:00,38.3,34.8,29.94,SSW,194,3.0,7.0,87,0.00,,,0.00,Wunderground v.1.15,2013-02-23 09:08:00,
2013-02-23 01:13:00,38.3,34.8,29.94,SSW,209,4.0,8.0,87,0.00,,,0.00,Wunderground v.1.15,2013-02-23 09:13:00,
2013-02-23 01:18:00,38.3,34.8,29.94,SW,235,5.0,14.0,87,0.00,,,0.00,Wunderground v.1.15,2013-02-23 09:18:00,
2013-02-23 01:23:00,38.3,34.8,29.95,SW,224,5.0,5.0,87,0.00,,,0.00,Wunderground v.1.15,2013-02-23 09:23:00,
2013-02-23 01:29:00,38.3,34.8,29.95,SW,224,2.0,5.0,87,0.00,,,0.00,Wunderground v.1.15,2013-02-23 09:29:00,
2013-02-23 01:34:00,38.3,34.8,29.95,SW,231,1.0,4.0,87,0.00,,,0.00,Wunderground v.1.15,2013-02-23 09:34:00,
2013-02-23 01:39:00,38.3,35.1,29.95,SW,231,3.0,5.0,88,0.00,,,0.00,Wunderground v.1.15,2013-02-23 09:39:00,
2013-02-23 01:45:00,38.3,34.8,29.96,SW,222,4.0,5.0,87,0.00,,,0.00,Wunderground v.1.15,2013-02-23 09:45:00,
2013-02-23 01:50:00,38.3,35.1,29.96,SSW,200,4.0,4.0,88,0.00,,,0.00,Wunderground v.1.15,2013-02-23 09:50:00,
2013-02-23 01:55:00,38.3,35.1,29.96,WSW,238,4.0,10.0,88,0.00,,,0.00,Wunderground v.1.15,2013-02-23 09:55:00,
2013-02-23 02:01:00,38.3,35.1,29.96,East,93,4.0,4.0,88,0.00,,,0.00,Wunderground v.1.15,2013-02-23 10:01:00,
2013-02-23 02:06:00,38.3,35.1,29.96,WSW,244,3.0,6.0,88,0.00,,,0.00,Wunderground v.1.15,2013-02-23 10:06:00,
2013-02-23 02:11:00,38.3,35.1,29.96,WSW,242,2.0,9.0,88,0.00,,,0.00,Wunderground v.1.15,2013-02-23 10:11:00,
2013-02-23 02:17:00,38.3,35.1,29.97,ESE,114,2.0,9.0,88,0.00,,,0.00,Wunderground v.1.15,2013-02-23 10:17:00,
2013-02-23 02:23:00,38.2,35.0,29.97,SW,221,1.0,3.0,88,0.00,,,0.00,Wunderground v.1.15,2013-02-23 10:23:00,
2013-02-23 02:28:00,38.2,35.0,29.97,SE,139,1.0,5.0,88,0.00,,,0.00,Wunderground v.1.15,2013-02-23 10:28:00,
2013-02-23 02:34:00,38.2,35.0,29.97,SW,234,1.0,2.0,88,0.00,,,0.00,Wunderground v.1.15,2013-02-23 10:34:00,
2013-02-23 02:39:00,38.2,35.0,29.97,SW,233,1.0,2.0,88,0.00,,,0.00,Wunderground v.1.15,2013-02-23 10:39:00,
2013-02-23 02:44:00,38.2,35.2,29.97,SW,233,1.0,3.0,89,0.00,,,0.00,Wunderground v.1.15,2013-02-23 10:44:00,
2013-02-23 02:49:00,38.2,35.2,29.97,SW,219,2.0,5.0,89,0.00,,,0.00,Wunderground v.1.15,2013-02-23 10:49:00,
2013-02-23 02:55:00,38.3,35.1,29.97,SSW,213,4.0,4.0,88,0.00,,,0.00,Wunderground v.1.15,2013-02-23 10:55:00,
2013-02-23 03:01:00,38.3,35.1,29.97,SW,232,4.0,4.0,88,0.00,,,0.00,Wunderground v.1.15,2013-02-23 11:01:00,
2013-02-23 03:06:00,38.3,35.1,29.97,West,260,4.0,4.0,88,0.00,,,0.00,Wunderground v.1.15,2013-02-23 11:06:00,
2013-02-23 03:11:00,38.3,35.1,29.98,SW,219,2.0,3.0,88,0.00,,,0.00,Wunderground v.1.15,2013-02-23 11:11:00,
2013-02-23 03:16:00,38.3,35.3,29.98,SW,227,2.0,3.0,89,0.00,,,0.00,Wunderground v.1.15,2013-02-23 11:16:00,
2013-02-23 03:21:00,38.3,35.1,29.98,WSW,248,2.0,4.0,88,0.00,,,0.00,Wunderground v.1.15,2013-02-23 11:21:00,
2013-02-23 03:27:00,38.3,35.3,29.98,SW,225,3.0,6.0,89,0.00,,,0.00,Wunderground v.1.15,2013-02-23 11:27:00,
2013-02-23 03:32:00,38.3,35.3,29.98,West,272,4.0,4.0,89,0.00,,,0.00,Wunderground v.1.15,2013-02-23 11:32:00,
2013-02-23 03:37:00,38.3,35.1,29.98,South,188,4.0,7.0,88,0.00,,,0.00,Wunderground v.1.15,2013-02-23 11:37:00,
2013-02-23 03:43:00,38.3,35.3,29.99,West,267,4.0,7.0,89,0.00,,,0.00,Wunderground v.1.15,2013-02-23 11:43:00,
2013-02-23 03:48:00,38.4,35.4,29.99,WSW,240,4.0,7.0,89,0.00,,,0.00,Wunderground v.1.15,2013-02-23 11:48:00,
2013-02-23 03:53:00,38.3,35.6,29.99,WNW,291,4.0,8.0,90,0.00,,,0.00,Wunderground v.1.15,2013-02-23 11:53:00,
2013-02-23 03:58:00,38.3,35.6,29.99,SW,235,4.0,8.0,90,0.00,,,0.00,Wunderground v.1.15,2013-02-23 11:58:00,
2013-02-23 04:03:00,38.2,35.5,29.99,South,171,3.0,5.0,90,0.00,,,0.00,Wunderground v.1.15,2013-02-23 12:03:00,
2013-02-23 04:09:00,38.2,35.8,29.99,SW,220,3.0,5.0,91,0.00,,,0.00,Wunderground v.1.15,2013-02-23 12:09:00,
2013-02-23 04:14:00,38.1,35.7,29.99,SW,217,4.0,9.0,91,0.00,,,0.00,Wunderground v.1.15,2013-02-23 12:14:00,
2013-02-23 04:19:00,38.0,35.6,30.00,SW,229,5.0,9.0,91,0.00,,,0.00,Wunderground v.1.15,2013-02-23 12:19:00,
2013-02-23 04:24:00,38.0,35.6,30.00,SSW,194,5.0,6.0,91,0.00,,,0.00,Wunderground v.1.15,2013-02-23 12:24:00,
2013-02-23 04:31:00,38.0,35.9,30.01,SW,226,3.0,3.0,92,0.00,,,0.00,Wunderground v.1.15,2013-02-23 12:31:00,
2013-02-23 04:36:00,38.0,35.9,30.01,SW,220,2.0,7.0,92,0.00,,,0.00,Wunderground v.1.15,2013-02-23 12:36:00,
2013-02-23 04:41:00,38.0,35.6,30.01,SSW,205,2.0,2.0,91,0.00,,,0.00,Wunderground v.1.15,2013-02-23 12:41:00,
2013-02-23 04:47:00,38.0,35.9,30.01,SW,229,2.0,3.0,92,0.00,,,0.00,Wunderground v.1.15,2013-02-23 12:47:00,
2013-02-23 04:52:00,38.0,35.6,30.02,WSW,242,2.0,6.0,91,0.00,,,0.00,Wunderground v.1.15,2013-02-23 12:52:00,
2013-02-23 04:57:00,38.0,35.9,30.02,SW,229,3.0,6.0,92,0.00,,,0.00,Wunderground v.1.15,2013-02-23 12:57:00,
2013-02-23 05:02:00,38.0,35.6,30.02,SW,227,3.0,4.0,91,0.00,,,0.00,Wunderground v.1.15,2013-02-23 13:02:00,
2013-02-23 05:07:00,38.0,35.6,30.02,SW,224,4.0,9.0,91,0.00,,,0.00,Wunderground v.1.15,2013-02-23 13:07:00,
2013-02-23 05:13:00,38.2,35.8,30.02,SW,221,5.0,6.0,91,0.00,,,0.00,Wunderground v.1.15,2013-02-23 13:13:00,
2013-02-23 05:18:00,38.2,35.8,30.02,SW,227,4.0,6.0,91,0.00,,,0.00,Wunderground v.1.15,2013-02-23 13:18:00,
2013-02-23 05:24:00,38.3,35.9,30.03,SW,217,4.0,8.0,91,0.00,,,0.00,Wunderground v.1.15,2013-02-23 13:24:00,
2013-02-23 05:29:00,38.3,35.9,30.03,SSW,207,4.0,8.0,91,0.00,,,0.00,Wunderground v.1.15,2013-02-23 13:29:00,
2013-02-23 05:34:00,38.4,36.0,30.03,SW,219,3.0,5.0,91,0.00,,,0.00,Wunderground v.1.15,2013-02-23 13:34:00,
2013-02-23 05:39:00,38.4,36.0,30.04,SSW,210,3.0,5.0,91,0.00,,,0.00,Wunderground v.1.15,2013-02-23 13:39:00,
2013-02-23 05:45:00,38.4,36.0,30.04,SW,219,2.0,6.0,91,0.00,,,0.00,Wunderground v.1.15,2013-02-23 13:45:00,
2013-02-23 05:50:00,38.4,36.0,30.03,SSW,198,2.0,2.0,91,0.00,,,0.00,Wunderground v.1.15,2013-02-23 13:50:00,
2013-02-23 05:56:00,38.5,36.1,30.04,South,188,2.0,4.0,91,0.00,,,0.00,Wunderground v.1.15,2013-02-23 13:56:00,
2013-02-23 06:01:00,38.5,36.1,30.04,NNE,13,2.0,4.0,91,0.00,,,0.00,Wunderground v.1.15,2013-02-23 14:01:00,
2013-02-23 06:06:00,38.5,36.1,30.04,WSW,238,2.0,7.0,91,0.00,,,0.00,Wunderground v.1.15,2013-02-23 14:06:00,
2013-02-23 06:12:00,38.5,36.1,30.05,SW,218,4.0,8.0,91,0.00,,,0.00,Wunderground v.1.15,2013-02-23 14:12:00,
2013-02-23 06:17:00,38.5,36.1,30.05,SW,229,4.0,8.0,91,0.00,,,0.00,Wunderground v.1.15,2013-02-23 14:17:00,
2013-02-23 06:22:00,38.5,36.1,30.06,SSW,209,3.0,5.0,91,0.00,,,0.00,Wunderground v.1.15,2013-02-23 14:22:00,
2013-02-23 06:27:00,38.5,35.8,30.06,South,190,3.0,5.0,90,0.00,,,0.00,Wunderground v.1.15,2013-02-23 14:27:00,
2013-02-23 06:33:00,38.6,35.9,30.06,South,187,2.0,4.0,90,0.00,,,0.00,Wunderground v.1.15,2013-02-23 14:33:00,
2013-02-23 06:39:00,38.6,35.9,30.06,South,191,2.0,5.0,90,0.00,,,0.00,Wunderground v.1.15,2013-02-23 14:39:00,
2013-02-23 06:45:00,38.7,36.0,30.07,SSE,154,3.0,8.0,90,0.00,,,0.00,Wunderground v.1.15,2013-02-23 14:45:00,
2013-02-23 06:50:00,38.7,36.0,30.07,SE,129,2.0,4.0,90,0.00,,,0.00,Wunderground v.1.15,2013-02-23 14:50:00,
2013-02-23 06:55:00,38.7,36.0,30.07,South,171,1.0,5.0,90,0.00,,,0.00,Wunderground v.1.15,2013-02-23 14:55:00,
2013-02-23 07:01:00,38.7,36.0,30.08,SW,214,2.0,3.0,90,0.00,,,0.00,Wunderground v.1.15,2013-02-23 15:01:00,
2013-02-23 07:06:00,38.7,36.0,30.08,SW,227,3.0,9.0,90,0.00,,,0.00,Wunderground v.1.15,2013-02-23 15:06:00,
2013-02-23 07:11:00,38.8,36.1,30.09,SSW,202,3.0,5.0,90,0.00,,,0.00,Wunderground v.1.15,2013-02-23 15:11:00,
2013-02-23 07:17:00,39.0,36.3,30.08,SW,227,3.0,5.0,90,0.00,,,0.00,Wunderground v.1.15,2013-02-23 15:17:00,
2013-02-23 07:22:00,39.0,36.3,30.09,SSE,165,2.0,6.0,90,0.00,,,0.00,Wunderground v.1.15,2013-02-23 15:22:00,
2013-02-23 07:27:00,39.1,36.4,30.09,SW,229,2.0,6.0,90,0.00,,,0.00,Wunderground v.1.15,2013-02-23 15:27:00,
2013-02-23 07:32:00,39.1,36.4,30.09,SSW,199,2.0,6.0,90,0.00,,,0.00,Wunderground v.1.15,2013-02-23 15:32:00,
2013-02-23 07:38:00,39.1,36.4,30.10,West,265,3.0,6.0,90,0.00,,,0.00,Wunderground v.1.15,2013-02-23 15:38:00,
2013-02-23 07:43:00,39.1,36.4,30.10,SW,231,3.0,3.0,90,0.00,,,0.00,Wunderground v.1.15,2013-02-23 15:43:00,
2013-02-23 07:49:00,39.2,36.5,30.10,WSW,242,3.0,4.0,90,0.00,,,0.00,Wunderground v.1.15,2013-02-23 15:49:00,
2013-02-23 07:54:00,39.2,36.5,30.10,SSW,196,3.0,7.0,90,0.00,,,0.00,Wunderground v.1.15,2013-02-23 15:54:00,
2013-02-23 07:59:00,39.3,36.6,30.11,SW,230,4.0,7.0,90,0.00,,,0.00,Wunderground v.1.15,2013-02-23 15:59:00,
2013-02-23 08:05:00,39.3,36.6,30.10,SSW,198,4.0,7.0,90,0.00,,,0.00,Wunderground v.1.15,2013-02-23 16:05:00,
2013-02-23 08:10:00,39.4,36.7,30.11,SSW,213,2.0,5.0,90,0.00,,,0.00,Wunderground v.1.15,2013-02-23 16:10:00,
2013-02-23 08:15:00,39.5,37.1,30.11,SW,227,1.0,5.0,91,0.00,,,0.00,Wunderground v.1.15,2013-02-23 16:15:00,
2013-02-23 08:21:00,39.6,36.9,30.12,SW,227,1.0,1.0,90,0.00,,,0.00,Wunderground v.1.15,2013-02-23 16:21:00,
2013-02-23 08:26:00,39.6,36.9,30.12,SW,221,2.0,7.0,90,0.00,,,0.00,Wunderground v.1.15,2013-02-23 16:26:00,
2013-02-23 08:31:00,39.7,37.0,30.12,SW,218,2.0,2.0,90,0.00,,,0.00,Wunderground v.1.15,2013-02-23 16:31:00,
2013-02-23 08:37:00,39.8,37.1,30.13,SW,227,2.0,5.0,90,0.00,,,0.00,Wunderground v.1.15,2013-02-23 16:37:00,
2013-02-23 08:43:00,39.9,37.2,30.13,SSW,197,2.0,5.0,90,0.00,,,0.00,Wunderground v.1.15,2013-02-23 16:43:00,
2013-02-23 08:48:00,40.1,37.4,30.13,WSW,238,2.0,5.0,90,0.00,,,0.00,Wunderground v.1.15,2013-02-23 16:48:00,
2013-02-23 08:53:00,40.1,37.4,30.13,SW,220,3.0,5.0,90,0.00,,,0.00,Wunderground v.1.15,2013-02-23 16:53:00,
2013-02-23 08:59:00,40.2,37.5,30.14,WSW,257,3.0,5.0,90,0.00,,,0.00,Wunderground v.1.15,2013-02-23 16:59:00,
2013-02-23 09:05:00,40.3,37.3,30.14,SSW,200,3.0,6.0,89,0.00,,,0.00,Wunderground v.1.15,2013-02-23 17:05:00,
2013-02-23 09:10:00,40.4,37.4,30.15,West,260,4.0,4.0,89,0.00,,,0.00,Wunderground v.1.15,2013-02-23 17:10:00,
2013-02-23 09:16:00,40.4,37.4,30.15,SW,219,3.0,4.0,89,0.00,,,0.00,Wunderground v.1.15,2013-02-23 17:16:00,
2013-02-23 09:21:00,40.6,37.6,30.16,SSW,202,2.0,4.0,89,0.00,,,0.00,Wunderground v.1.15,2013-02-23 17:21:00,
2013-02-23 09:27:00,40.8,37.5,30.16,SW,219,4.0,7.0,88,0.00,,,0.00,Wunderground v.1.15,2013-02-23 17:27:00,
2013-02-23 09:32:00,40.9,37.6,30.17,SW,225,5.0,5.0,88,0.00,,,0.00,Wunderground v.1.15,2013-02-23 17:32:00,
2013-02-23 09:37:00,41.0,38.9,30.17,WSW,245,3.0,5.0,92,0.00,,,0.00,Wunderground v.1.15,2013-02-23 17:37:00,
2013-02-23 09:42:00,41.1,37.8,30.17,SW,223,2.0,4.0,88,0.00,,,0.00,Wunderground v.1.15,2013-02-23 17:42:00,
2013-02-23 09:48:00,41.2,37.6,30.17,SSW,211,3.0,6.0,87,0.00,,,0.00,Wunderground v.1.15,2013-02-23 17:48:00,
2013-02-23 09:53:00,41.3,37.7,30.18,WSW,254,4.0,5.0,87,0.00,,,0.00,Wunderground v.1.15,2013-02-23 17:53:00,
2013-02-23 09:58:00,41.4,37.8,30.18,SSW,208,2.0,5.0,87,0.00,,,0.00,Wunderground v.1.15,2013-02-23 17:58:00,
2013-02-23 10:04:00,41.4,37.5,30.18,SW,231,2.0,3.0,86,0.00,,,0.00,Wunderground v.1.15,2013-02-23 18:04:00,
2013-02-23 10:09:00,41.5,37.6,30.18,SW,233,2.0,8.0,86,0.00,,,0.00,Wunderground v.1.15,2013-02-23 18:09:00,
2013-02-23 10:14:00,41.7,37.8,30.18,SSW,213,3.0,10.0,86,0.00,,,0.00,Wunderground v.1.15,2013-02-23 18:14:00,
2013-02-23 10:19:00,41.8,37.9,30.18,SW,224,4.0,10.0,86,0.00,,,0.00,Wunderground v.1.15,2013-02-23 18:19:00,
2013-02-23 10:24:00,41.9,37.7,30.19,South,190,3.0,4.0,85,0.00,,,0.00,Wunderground v.1.15,2013-02-23 18:24:00,
2013-02-23 10:30:00,42.2,38.6,30.19,SW,236,2.0,2.0,87,0.00,,,0.00,Wunderground v.1.15,2013-02-23 18:30:00,
2013-02-23 10:35:00,42.3,38.1,30.19,SW,217,3.0,3.0,85,0.00,,,0.00,Wunderground v.1.15,2013-02-23 18:35:00,
2013-02-23 10:41:00,42.4,37.9,30.20,SSW,197,3.0,3.0,84,0.00,,,0.00,Wunderground v.1.15,2013-02-23 18:41:00,
2013-02-23 10:46:00,42.5,38.3,30.20,WSW,247,3.0,7.0,85,0.00,,,0.00,Wunderground v.1.15,2013-02-23 18:46:00,
2013-02-23 10:51:00,42.7,38.2,30.20,SW,231,3.0,5.0,84,0.00,,,0.00,Wunderground v.1.15,2013-02-23 18:51:00,
2013-02-23 10:56:00,42.7,38.5,30.20,SSW,195,3.0,5.0,85,0.00,,,0.00,Wunderground v.1.15,2013-02-23 18:56:00,
2013-02-23 11:02:00,42.8,38.3,30.21,SW,222,3.0,3.0,84,0.00,,,0.00,Wunderground v.1.15,2013-02-23 19:02:00,
2013-02-23 11:07:00,42.9,38.4,30.21,SW,232,2.0,4.0,84,0.00,,,0.00,Wunderground v.1.15,2013-02-23 19:07:00,
2013-02-23 11:12:00,43.2,38.7,30.21,SW,236,3.0,3.0,84,0.00,,,0.00,Wunderground v.1.15,2013-02-23 19:12:00,
2013-02-23 11:17:00,43.5,39.0,30.21,SW,217,2.0,7.0,84,0.00,,,0.00,Wunderground v.1.15,2013-02-23 19:17:00,
2013-02-23 11:23:00,43.9,39.7,30.21,SW,227,3.0,6.0,85,0.00,,,0.00,Wunderground v.1.15,2013-02-23 19:23:00,
2013-02-23 11:28:00,44.2,39.1,30.21,SW,219,3.0,6.0,82,0.00,,,0.00,Wunderground v.1.15,2013-02-23 19:28:00,
2013-02-23 11:34:00,44.4,38.9,30.22,SSW,205,3.0,6.0,81,0.00,,,0.00,Wunderground v.1.15,2013-02-23 19:34:00,
2013-02-23 11:40:00,44.5,39.0,30.22,SW,233,3.0,4.0,81,0.00,,,0.00,Wunderground v.1.15,2013-02-23 19:40:00,
2013-02-23 11:45:00,44.7,39.2,30.22,SW,220,2.0,4.0,81,0.00,,,0.00,Wunderground v.1.15,2013-02-23 19:45:00,
2013-02-23 11:50:00,45.2,40.0,30.22,WSW,237,2.0,2.0,82,0.00,,,0.00,Wunderground v.1.15,2013-02-23 19:50:00,
2013-02-23 11:56:00,45.9,39.8,30.22,SSW,207,2.0,2.0,79,0.00,,,0.00,Wunderground v.1.15,2013-02-23 19:56:00,
2013-02-23 12:01:00,46.2,39.4,30.22,South,177,2.0,2.0,77,0.00,,,0.00,Wunderground v.1.15,2013-02-23 20:01:00,
2013-02-23 12:06:00,46.0,39.5,30.22,SW,221,2.0,8.0,78,0.00,,,0.00,Wunderground v.1.15,2013-02-23 20:06:00,
2013-02-23 12:12:00,46.1,39.9,30.22,SW,223,3.0,3.0,79,0.00,,,0.00,Wunderground v.1.15,2013-02-23 20:12:00,
2013-02-23 12:17:00,46.1,39.6,30.22,SSW,211,2.0,5.0,78,0.00,,,0.00,Wunderground v.1.15,2013-02-23 20:17:00,
2013-02-23 12:22:00,46.1,39.0,30.22,SSE,153,2.0,5.0,76,0.00,,,0.00,Wunderground v.1.15,2013-02-23 20:22:00,
2013-02-23 12:27:00,45.8,39.0,30.23,SW,233,2.0,6.0,77,0.00,,,0.00,Wunderground v.1.15,2013-02-23 20:27:00,
2013-02-23 12:33:00,45.7,39.2,30.23,SSE,151,2.0,4.0,78,0.00,,,0.00,Wunderground v.1.15,2013-02-23 20:33:00,
2013-02-23 12:38:00,45.7,38.6,30.22,SW,227,1.0,5.0,76,0.00,,,0.00,Wunderground v.1.15,2013-02-23 20:38:00,
2013-02-23 12:43:00,45.6,38.8,30.22,SE,142,2.0,5.0,77,0.00,,,0.00,Wunderground v.1.15,2013-02-23 20:43:00,
2013-02-23 12:49:00,45.7,39.9,30.22,South,181,2.0,5.0,80,0.00,,,0.00,Wunderground v.1.15,2013-02-23 20:49:00,
2013-02-23 12:55:00,46.0,39.2,30.22,SSW,209,1.0,3.0,77,0.00,,,0.00,Wunderground v.1.15,2013-02-23 20:55:00,
2013-02-23 13:01:00,46.2,39.7,30.22,SE,138,1.0,1.0,78,0.00,,,0.00,Wunderground v.1.15,2013-02-23 21:01:00,
2013-02-23 13:06:00,46.5,39.3,30.22,SSW,207,1.0,1.0,76,0.00,,,0.00,Wunderground v.1.15,2013-02-23 21:06:00,
2013-02-23 13:11:00,47.0,39.8,30.22,SSW,206,1.0,1.0,76,0.00,,,0.00,Wunderground v.1.15,2013-02-23 21:11:00,
2013-02-23 13:16:00,47.5,39.6,30.22,SSW,207,0.0,2.0,74,0.00,,,0.00,Wunderground v.1.15,2013-02-23 21:16:00,
2013-02-23 13:22:00,47.8,39.9,30.23,WNW,300,0.0,3.0,74,0.00,,,0.00,Wunderground v.1.15,2013-02-23 21:22:00,
2013-02-23 13:27:00,47.9,39.3,30.23,WNW,300,1.0,3.0,72,0.00,,,0.00,Wunderground v.1.15,2013-02-23 21:27:00,
2013-02-23 13:32:00,47.6,39.7,30.23,WSW,238,0.0,4.0,74,0.00,,,0.00,Wunderground v.1.15,2013-02-23 21:32:00,
2013-02-23 13:37:00,47.5,39.3,30.23,SW,223,2.0,4.0,73,0.00,,,0.00,Wunderground v.1.15,2013-02-23 21:37:00,
2013-02-23 13:42:00,47.2,39.7,30.23,SW,223,2.0,2.0,75,0.00,,,0.00,Wunderground v.1.15,2013-02-23 21:42:00,
2013-02-23 13:48:00,47.2,39.0,30.23,SW,223,0.0,2.0,73,0.00,,,0.00,Wunderground v.1.15,2013-02-23 21:48:00,
2013-02-23 13:53:00,47.4,39.5,30.23,SW,223,0.0,1.0,74,0.00,,,0.00,Wunderground v.1.15,2013-02-23 21:53:00,
2013-02-23 13:58:00,47.8,39.6,30.23,SSW,210,2.0,6.0,73,0.00,,,0.00,Wunderground v.1.15,2013-02-23 21:58:00,
2013-02-23 14:04:00,48.3,39.3,30.23,SSW,210,2.0,2.0,71,0.00,,,0.00,Wunderground v.1.15,2013-02-23 22:04:00,
2013-02-23 14:10:00,48.5,39.5,30.23,SW,219,1.0,3.0,71,0.00,,,0.00,Wunderground v.1.15,2013-02-23 22:10:00,
2013-02-23 14:15:00,48.6,38.5,30.23,SW,215,3.0,8.0,68,0.00,,,0.00,Wunderground v.1.15,2013-02-23 22:15:00,
2013-02-23 14:21:00,48.6,39.3,30.24,WSW,257,3.0,3.0,70,0.00,,,0.00,Wunderground v.1.15,2013-02-23 22:21:00,
2013-02-23 14:26:00,48.8,39.4,30.24,West,269,3.0,4.0,70,0.00,,,0.00,Wunderground v.1.15,2013-02-23 22:26:00,
2013-02-23 14:31:00,48.9,38.4,30.24,NW,306,2.0,2.0,67,0.00,,,0.00,Wunderground v.1.15,2013-02-23 22:31:00,
2013-02-23 14:37:00,48.8,39.1,30.24,NNW,337,1.0,2.0,69,0.00,,,0.00,Wunderground v.1.15,2013-02-23 22:37:00,
2013-02-23 14:42:00,48.7,38.2,30.24,NW,312,1.0,2.0,67,0.00,,,0.00,Wunderground v.1.15,2013-02-23 22:42:00,
2013-02-23 14:47:00,48.7,38.2,30.24,WNW,301,1.0,2.0,67,0.00,,,0.00,Wunderground v.1.15,2013-02-23 22:47:00,
2013-02-23 14:53:00,48.8,38.7,30.25,NW,318,1.0,4.0,68,0.00,,,0.00,Wunderground v.1.15,2013-02-23 22:53:00,
2013-02-23 14:59:00,48.9,38.0,30.25,WSW,244,2.0,4.0,66,0.00,,,0.00,Wunderground v.1.15,2013-02-23 22:59:00,
2013-02-23 15:04:00,48.8,37.9,30.25,NW,319,2.0,4.0,66,0.00,,,0.00,Wunderground v.1.15,2013-02-23 23:04:00,
2013-02-23 15:09:00,48.6,39.3,30.25,WNW,292,2.0,4.0,70,0.00,,,0.00,Wunderground v.1.15,2013-02-23 23:09:00,
2013-02-23 15:16:00,48.4,38.3,30.25,WNW,292,0.0,2.0,68,0.00,,,0.00,Wunderground v.1.15,2013-02-23 23:16:00,
2013-02-23 15:21:00,48.2,38.9,30.25,NNE,22,0.0,3.0,70,0.00,,,0.00,Wunderground v.1.15,2013-02-23 23:21:00,
2013-02-23 15:26:00,47.9,39.7,30.25,ENE,61,1.0,3.0,73,0.00,,,0.00,Wunderground v.1.15,2013-02-23 23:26:00,
2013-02-23 15:32:00,47.5,40.3,30.25,East,96,2.0,4.0,76,0.00,,,0.00,Wunderground v.1.15,2013-02-23 23:32:00,
2013-02-23 15:37:00,47.1,40.3,30.25,ESE,103,2.0,4.0,77,0.00,,,0.00,Wunderground v.1.15,2013-02-23 23:37:00,
2013-02-23 15:42:00,46.8,40.0,30.26,East,101,1.0,2.0,77,0.00,,,0.00,Wunderground v.1.15,2013-02-23 23:42:00,
2013-02-23 15:47:00,46.6,39.8,30.26,ESE,106,2.0,4.0,77,0.00,,,0.00,Wunderground v.1.15,2013-02-23 23:47:00,
2013-02-23 15:53:00,46.3,39.8,30.26,ESE,106,2.0,2.0,78,0.00,,,0.00,Wunderground v.1.15,2013-02-23 23:53:00,
2013-02-23 15:58:00,46.2,39.7,30.26,East,93,1.0,5.0,78,0.00,,,0.00,Wunderground v.1.15,2013-02-23 23:58:00,
2013-02-23 16:03:00,46.0,39.5,30.27,East,93,1.0,5.0,78,0.00,,,0.00,Wunderground v.1.15,2013-02-24 00:03:00,
2013-02-23 16:09:00,45.7,39.6,30.27,East,93,1.0,5.0,79,0.00,,,0.00,Wunderground v.1.15,2013-02-24 00:09:00,
2013-02-23 16:14:00,45.4,39.9,30.27,East,94,1.0,2.0,81,0.00,,,0.01,Wunderground v.1.15,2013-02-24 00:14:00,
2013-02-23 16:19:00,45.1,40.2,30.27,SW,227,1.0,2.0,83,0.00,,,0.01,Wunderground v.1.15,2013-02-24 00:19:00,
2013-02-23 16:24:00,44.6,40.7,30.28,SW,233,1.0,8.0,86,0.04,,,0.02,Wunderground v.1.15,2013-02-24 00:24:00,
2013-02-23 16:30:00,43.7,39.2,30.28,SSE,150,4.0,6.0,84,0.11,,,0.03,Wunderground v.1.15,2013-02-24 00:30:00,
2013-02-23 16:35:00,43.1,39.2,30.28,SSE,163,5.0,6.0,86,0.09,,,0.04,Wunderground v.1.15,2013-02-24 00:35:00,
2013-02-23 16:41:00,42.6,39.3,30.28,ENE,59,4.0,4.0,88,0.09,,,0.04,Wunderground v.1.15,2013-02-24 00:41:00,
2013-02-23 16:46:00,42.3,39.3,30.28,East,89,3.0,4.0,89,0.05,,,0.04,Wunderground v.1.15,2013-02-24 00:46:00,
2013-02-23 16:51:00,42.1,39.4,30.28,NE,49,3.0,3.0,90,0.04,,,0.04,Wunderground v.1.15,2013-02-24 00:51:00,
2013-02-23 16:56:00,41.8,38.8,30.28,East,87,2.0,3.0,89,0.00,,,0.04,Wunderground v.1.15,2013-02-24 00:56:00,
2013-02-23 17:01:00,41.5,38.8,30.28,ESE,106,3.0,4.0,90,0.00,,,0.04,Wunderground v.1.15,2013-02-24 01:01:00,
2013-02-23 17:07:00,41.2,38.5,30.29,East,100,3.0,5.0,90,0.00,,,0.04,Wunderground v.1.15,2013-02-24 01:07:00,
2013-02-23 17:12:00,41.0,38.6,30.29,East,101,3.0,5.0,91,0.00,,,0.04,Wunderground v.1.15,2013-02-24 01:12:00,
2013-02-23 17:17:00,40.9,38.8,30.29,ESE,103,3.0,5.0,92,0.00,,,0.05,Wunderground v.1.15,2013-02-24 01:17:00,
2013-02-23 17:22:00,40.7,38.6,30.29,East,101,3.0,4.0,92,0.00,,,0.05,Wunderground v.1.15,2013-02-24 01:22:00,
2013-02-23 17:28:00,40.6,38.7,30.30,East,101,2.0,4.0,93,0.00,,,0.05,Wunderground v.1.15,2013-02-24 01:28:00,
2013-02-23 17:33:00,40.5,38.6,30.30,ESE,121,3.0,4.0,93,0.00,,,0.05,Wunderground v.1.15,2013-02-24 01:33:00,
2013-02-23 17:38:00,40.4,38.5,30.31,ESE,121,1.0,4.0,93,0.00,,,0.05,Wunderground v.1.15,2013-02-24 01:38:00,
2013-02-23 17:44:00,40.3,38.7,30.31,ESE,121,0.0,5.0,94,0.00,,,0.05,Wunderground v.1.15,2013-02-24 01:44:00,
2013-02-23 17:49:00,40.3,38.7,30.31,ESE,121,1.0,5.0,94,0.00,,,0.05,Wunderground v.1.15,2013-02-24 01:49:00,
2013-02-23 17:55:00,40.2,38.6,30.31,ESE,121,0.0,1.0,94,0.00,,,0.05,Wunderground v.1.15,2013-02-24 01:55:00,
2013-02-23 18:01:00,40.2,38.6,30.32,ESE,121,0.0,0.0,94,0.00,,,0.05,Wunderground v.1.15,2013-02-24 02:01:00,
2013-02-23 18:06:00,40.2,38.6,30.32,ESE,121,0.0,1.0,94,0.00,,,0.05,Wunderground v.1.15,2013-02-24 02:06:00,
2013-02-23 18:11:00,40.2,38.6,30.32,ESE,121,0.0,0.0,94,0.00,,,0.06,Wunderground v.1.15,2013-02-24 02:11:00,
2013-02-23 18:16:00,40.1,38.8,30.32,ESE,121,0.0,0.0,95,0.08,,,0.07,Wunderground v.1.15,2013-02-24 02:16:00,
2013-02-23 18:22:00,40.1,38.8,30.32,ESE,121,1.0,4.0,95,0.13,,,0.08,Wunderground v.1.15,2013-02-24 02:22:00,
2013-02-23 18:27:00,40.1,38.8,30.32,ESE,117,2.0,4.0,95,0.09,,,0.08,Wunderground v.1.15,2013-02-24 02:27:00,
2013-02-23 18:32:00,40.0,38.7,30.33,ESE,117,2.0,2.0,95,0.05,,,0.08,Wunderground v.1.15,2013-02-24 02:32:00,
2013-02-23 18:37:00,39.9,38.6,30.33,ESE,117,1.0,2.0,95,0.04,,,0.08,Wunderground v.1.15,2013-02-24 02:37:00,
2013-02-23 18:43:00,39.9,38.6,30.33,ESE,117,0.0,0.0,95,0.00,,,0.08,Wunderground v.1.15,2013-02-24 02:43:00,
2013-02-23 18:48:00,39.8,38.5,30.33,ESE,117,0.0,0.0,95,0.00,,,0.08,Wunderground v.1.15,2013-02-24 02:48:00,
2013-02-23 18:53:00,39.8,38.5,30.33,ESE,117,0.0,0.0,95,0.00,,,0.08,Wunderground v.1.15,2013-02-24 02:53:00,
2013-02-23 18:59:00,39.8,38.5,30.34,ESE,117,0.0,1.0,95,0.00,,,0.08,Wunderground v.1.15,2013-02-24 02:59:00,
2013-02-23 19:04:00,39.7,38.4,30.34,ESE,117,0.0,0.0,95,0.00,,,0.09,Wunderground v.1.15,2013-02-24 03:04:00,
2013-02-23 19:09:00,39.7,38.4,30.34,ESE,117,0.0,0.0,95,0.07,,,0.10,Wunderground v.1.15,2013-02-24 03:09:00,
2013-02-23 19:14:00,39.7,38.4,30.34,ESE,117,0.0,1.0,95,0.07,,,0.10,Wunderground v.1.15,2013-02-24 03:14:00,
2013-02-23 19:19:00,39.7,38.4,30.34,South,172,0.0,5.0,95,0.05,,,0.10,Wunderground v.1.15,2013-02-24 03:19:00,
2013-02-23 19:25:00,39.6,38.3,30.35,South,171,1.0,5.0,95,0.05,,,0.11,Wunderground v.1.15,2013-02-24 03:25:00,
2013-02-23 19:30:00,39.6,38.3,30.34,South,171,1.0,1.0,95,0.05,,,0.11,Wunderground v.1.15,2013-02-24 03:30:00,
2013-02-23 19:35:00,39.5,38.2,30.34,SSE,160,0.0,2.0,95,0.04,,,0.11,Wunderground v.1.15,2013-02-24 03:35:00,
2013-02-23 19:41:00,39.4,38.1,30.35,SSE,160,1.0,1.0,95,0.00,,,0.11,Wunderground v.1.15,2013-02-24 03:41:00,
2013-02-23 19:46:00,39.4,38.1,30.35,SSE,160,0.0,1.0,95,0.00,,,0.11,Wunderground v.1.15,2013-02-24 03:46:00,
2013-02-23 19:52:00,39.3,38.0,30.36,SSE,160,0.0,1.0,95,0.00,,,0.11,Wunderground v.1.15,2013-02-24 03:52:00,
2013-02-23 19:57:00,39.3,38.0,30.36,SSE,160,0.0,1.0,95,0.00,,,0.12,Wunderground v.1.15,2013-02-24 03:57:00,
2013-02-23 20:02:00,39.1,37.8,30.36,SSE,160,0.0,0.0,95,0.00,,,0.12,Wunderground v.1.15,2013-02-24 04:02:00,
2013-02-23 20:07:00,39.1,37.8,30.37,SSE,160,0.0,1.0,95,0.00,,,0.12,Wunderground v.1.15,2013-02-24 04:07:00,
2013-02-23 20:13:00,39.0,37.7,30.37,SE,126,1.0,4.0,95,0.04,,,0.13,Wunderground v.1.15,2013-02-24 04:13:00,
2013-02-23 20:18:00,38.9,37.6,30.37,SE,126,2.0,4.0,95,0.04,,,0.13,Wunderground v.1.15,2013-02-24 04:18:00,
2013-02-23 20:23:00,38.9,37.6,30.37,SE,126,1.0,2.0,95,0.04,,,0.13,Wunderground v.1.15,2013-02-24 04:23:00,
2013-02-23 20:28:00,38.9,37.6,30.37,SE,126,0.0,2.0,95,0.04,,,0.14,Wunderground v.1.15,2013-02-24 04:28:00,
2013-02-23 20:34:00,38.8,37.8,30.37,SE,126,0.0,0.0,96,0.04,,,0.14,Wunderground v.1.15,2013-02-24 04:34:00,
2013-02-23 20:39:00,38.8,37.8,30.37,SE,126,0.0,0.0,96,0.04,,,0.14,Wunderground v.1.15,2013-02-24 04:39:00,
2013-02-23 20:44:00,38.8,37.8,30.37,SE,126,0.0,0.0,96,0.00,,,0.14,Wunderground v.1.15,2013-02-24 04:44:00,
2013-02-23 20:51:00,38.8,37.8,30.37,SE,126,0.0,0.0,96,0.00,,,0.14,Wunderground v.1.15,2013-02-24 04:51:00,
2013-02-23 20:56:00,38.8,37.8,30.37,SE,126,0.0,0.0,96,0.00,,,0.14,Wunderground v.1.15,2013-02-24 04:56:00,
2013-02-23 21:01:00,38.8,37.8,30.37,SE,126,0.0,0.0,96,0.00,,,0.14,Wunderground v.1.15,2013-02-24 05:01:00,
2013-02-23 21:04:00,38.8,37.8,30.37,SE,126,0.0,0.0,96,0.00,,,0.14,Wunderground v.1.15,2013-02-24 05:04:00,
2013-02-23 21:07:00,38.8,37.8,30.37,SE,126,0.0,0.0,96,0.00,,,0.14,Wunderground v.1.15,2013-02-24 05:07:00,
2013-02-23 21:12:00,38.7,37.7,30.37,SE,126,0.0,0.0,96,0.00,,,0.14,Wunderground v.1.15,2013-02-24 05:12:00,
2013-02-23 21:17:00,38.7,37.7,30.37,SE,126,0.0,0.0,96,0.00,,,0.14,Wunderground v.1.15,2013-02-24 05:17:00,
2013-02-23 21:22:00,38.7,37.7,30.37,SE,126,0.0,0.0,96,0.00,,,0.14,Wunderground v.1.15,2013-02-24 05:22:00,
2013-02-23 21:27:00,38.7,37.7,30.37,SE,126,0.0,0.0,96,0.00,,,0.14,Wunderground v.1.15,2013-02-24 05:27:00,
2013-02-23 21:33:00,38.7,37.7,30.38,SE,126,0.0,0.0,96,0.00,,,0.14,Wunderground v.1.15,2013-02-24 05:33:00,
2013-02-23 21:38:00,38.7,37.7,30.37,SE,126,0.0,1.0,96,0.00,,,0.14,Wunderground v.1.15,2013-02-24 05:38:00,
2013-02-23 21:43:00,38.7,37.7,30.38,SE,126,0.0,0.0,96,0.00,,,0.14,Wunderground v.1.15,2013-02-24 05:43:00,
2013-02-23 21:48:00,38.7,37.7,30.38,SE,126,0.0,0.0,96,0.00,,,0.14,Wunderground v.1.15,2013-02-24 05:48:00,
2013-02-23 21:54:00,38.7,37.7,30.38,SE,126,0.0,0.0,96,0.00,,,0.14,Wunderground v.1.15,2013-02-24 05:54:00,
2013-02-23 21:59:00,38.7,37.7,30.38,SE,126,0.0,1.0,96,0.00,,,0.14,Wunderground v.1.15,2013-02-24 05:59:00,
2013-02-23 22:04:00,38.7,37.7,30.38,SE,126,0.0,2.0,96,0.00,,,0.14,Wunderground v.1.15,2013-02-24 06:04:00,
2013-02-23 22:11:00,38.6,37.6,30.38,SE,126,0.0,0.0,96,0.00,,,0.14,Wunderground v.1.15,2013-02-24 06:11:00,
2013-02-23 22:16:00,38.6,37.6,30.38,SE,126,0.0,0.0,96,0.00,,,0.14,Wunderground v.1.15,2013-02-24 06:16:00,
2013-02-23 22:21:00,38.5,37.5,30.38,SE,126,0.0,0.0,96,0.00,,,0.14,Wunderground v.1.15,2013-02-24 06:21:00,
2013-02-23 22:27:00,38.4,37.4,30.38,SE,131,0.0,1.0,96,0.00,,,0.14,Wunderground v.1.15,2013-02-24 06:27:00,
2013-02-23 22:32:00,38.4,37.4,30.38,SE,131,0.0,2.0,96,0.00,,,0.14,Wunderground v.1.15,2013-02-24 06:32:00,
2013-02-23 22:37:00,38.3,37.3,30.38,South,179,0.0,2.0,96,0.00,,,0.14,Wunderground v.1.15,2013-02-24 06:37:00,
2013-02-23 22:43:00,38.3,37.3,30.38,South,184,1.0,2.0,96,0.00,,,0.14,Wunderground v.1.15,2013-02-24 06:43:00,
2013-02-23 22:48:00,38.3,37.3,30.38,South,185,0.0,2.0,96,0.00,,,0.14,Wunderground v.1.15,2013-02-24 06:48:00,
2013-02-23 22:53:00,38.3,37.3,30.38,SW,219,0.0,2.0,96,0.00,,,0.14,Wunderground v.1.15,2013-02-24 06:53:00,
2013-02-23 22:58:00,38.2,37.2,30.38,South,184,1.0,2.0,96,0.00,,,0.14,Wunderground v.1.15,2013-02-24 06:58:00,
2013-02-23 23:03:00,38.2,37.2,30.38,WSW,238,1.0,6.0,96,0.00,,,0.14,Wunderground v.1.15,2013-02-24 07:03:00,
2013-02-23 23:09:00,38.1,36.8,30.38,SW,229,2.0,6.0,95,0.00,,,0.14,Wunderground v.1.15,2013-02-24 07:09:00,
2013-02-23 23:14:00,38.1,37.1,30.38,SSW,211,2.0,4.0,96,0.00,,,0.14,Wunderground v.1.15,2013-02-24 07:14:00,
2013-02-23 23:19:00,38.1,37.1,30.39,SSW,205,2.0,4.0,96,0.00,,,0.14,Wunderground v.1.15,2013-02-24 07:19:00,
2013-02-23 23:26:00,38.1,36.8,30.39,SW,223,1.0,5.0,95,0.00,,,0.14,Wunderground v.1.15,2013-02-24 07:26:00,
2013-02-23 23:31:00,38.1,36.8,30.39,SW,223,1.0,1.0,95,0.00,,,0.14,Wunderground v.1.15,2013-02-24 07:31:00,
2013-02-23 23:37:00,38.1,36.8,30.39,SW,223,0.0,3.0,95,0.00,,,0.14,Wunderground v.1.15,2013-02-24 07:37:00,
2013-02-23 23:42:00,38.1,36.8,30.39,SW,223,1.0,2.0,95,0.00,,,0.14,Wunderground v.1.15,2013-02-24 07:42:00,
2013-02-23 23:47:00,38.1,36.8,30.39,SW,223,1.0,2.0,95,0.00,,,0.14,Wunderground v.1.15,2013-02-24 07:47:00,
2013-02-23 23:52:00,38.0,36.7,30.39,SW,223,0.0,0.0,95,0.00,,,0.14,Wunderground v.1.15,2013-02-24 07:52:00,
2013-02-23 23:58:00,38.0,36.7,30.39,SW,223,0.0,0.0,95,0.00,,,0.00,Wunderground v.1.15,2013-02-24 07:58:00,